Flag for U.S.A. Weather past 2 weeks in Augusta, Georgia, U.S.A.

Now
74 °F

Partly sunny.


Feels Like: 76 °F
Forecast: 64 / 78 °F
Wind: 8 mph from Northwest

Location: Daniel Field

Current Time: Sep 22, 2014 at 9:22:52 AM

Latest Report: Sep 22, 2014 at 8:53 AM


Visibility: 10 mi

Pressure: 30.01 "Hg

Humidity: 71%

Dew point: 64 °F

Location of AugustaLocation

Historic Weather in Augusta — Graph

°F

Augusta temperature yesterday

Maximum temperature yesterday: 88 °F (at 3:53 PM)
Minimum temperature yesterday: 66 °F (at 6:53 AM)
Average temperature yesterday: 77 °F

Past Weeks' High & Low Weather Summary

 TemperatureHumidityPressure
High95 °F (Sep 12, 12:53 PM)97% (Sep 8, 6:53 AM)30.21 "Hg (Sep 8, 6:53 AM)
Low66 °F (Sep 21, 6:53 AM)40% (Sep 20, 4:53 PM)29.87 "Hg (Sep 17, 4:53 PM)
Average77 °F77%30.03 "Hg
* Reported Sep 7 7:53 AM — Sep 22 7:53 AM, Augusta, Weather by CustomWeather, © 2014

Note: Actual official high and low records may vary slightly from our data, if they occured in-between our weather recording intervals... More about our weather records

Advertising

Augusta weather history for previous 24 hours

 ConditionsComfort  
Time TempWeatherWind HumidityBarometerVisibility
7:53 AM
Sep 22
73 °FPassing clouds.No wind71%29.99 "Hg10 mi
6:53 AM73 °FClear.No wind71%29.95 "Hg10 mi
5:53 AM74 °FPassing clouds.3 mph67%29.95 "Hg10 mi
4:53 AM75 °FOvercast.3 mph64%29.93 "Hg10 mi
3:53 AM75 °FOvercast.7 mph64%29.93 "Hg10 mi
2:53 AM74 °FOvercast.5 mph67%29.93 "Hg10 mi
1:53 AM74 °FMostly cloudy.5 mph67%29.94 "Hg10 mi
12:53 AM75 °FPassing clouds.5 mph64%29.93 "Hg10 mi
11:53 PM
Sep 21
76 °FClear.3 mph62%29.94 "Hg10 mi
10:53 PM78 °FClear.5 mph58%29.95 "Hg10 mi
9:53 PM78 °FClear.3 mph58%29.94 "Hg10 mi
8:53 PM80 °FClear.No wind56%29.93 "Hg10 mi
7:53 PM82 °FSunny.3 mph53%29.91 "Hg10 mi
6:53 PM85 °FSunny.5 mph46%29.90 "Hg10 mi
5:53 PM87 °FSunny.7 mph42%29.89 "Hg10 mi
4:53 PM88 °FSunny.8 mph40%29.90 "Hg10 mi
3:53 PM88 °FPassing clouds.7 mph40%29.91 "Hg10 mi
2:53 PM87 °FSunny.9 mph42%29.91 "Hg10 mi
1:53 PM86 °FSunny.7 mph45%29.94 "Hg10 mi
12:53 PM85 °FSunny.12 mph46%29.98 "Hg10 mi
11:53 AM83 °FSunny.13 mph50%30.00 "Hg10 mi
10:53 AM79 °FSunny.6 mph54%30.02 "Hg10 mi
9:53 AM74 °FSunny.3 mph67%30.01 "Hg10 mi
Weather by CustomWeather, © 2014

See weather overviewHow to use our weather pages